ZPI YBCS-YBCS

Flight info

Callsign ZPI
Flight time 0h 41m
Altitude 500
Route YRAP GNIS YRAP
Aircraft H145/L-VGD/A

Departure

Time 2026-04-27 08:11
Airport Cairns International Airport (YBCS)

Arrival

Time 2026-04-27 08:52
Airport Cairns International Airport (YBCS)
Time Latitude Longitude Altitude Speed Heading
2026-04-27 07:48 -16.88647 145.75168 14 ft 0 kts 69°
2026-04-27 08:00 -16.88648 145.75189 32 ft 18 kts 75°
2026-04-27 08:00 -16.88822 145.75441 173 ft 63 kts 136°
2026-04-27 08:00 -16.89204 145.75762 395 ft 76 kts 143°
2026-04-27 08:01 -16.89660 145.76080 484 ft 82 kts 146°
2026-04-27 08:01 -16.90148 145.76432 495 ft 89 kts 144°
2026-04-27 08:01 -16.90672 145.76825 473 ft 95 kts 143°
2026-04-27 08:01 -16.91144 145.77234 462 ft 77 kts 136°
2026-04-27 08:02 -16.91460 145.77574 363 ft 58 kts 134°
2026-04-27 08:02 -16.91675 145.77808 220 ft 33 kts 135°
2026-04-27 08:02 -16.91781 145.77929 70 ft 16 kts 134°
2026-04-27 08:02 -16.91820 145.77975 27 ft 4 kts 136°
2026-04-27 08:03 -16.91834 145.77990 21 ft 3 kts 136°
2026-04-27 08:03 -16.91841 145.77995 10 ft 0 kts 135°
2026-04-27 08:10 -16.91744 145.78039 182 ft 43 kts 37°
2026-04-27 08:11 -16.91378 145.78266 425 ft 76 kts 33°
2026-04-27 08:11 -16.91043 145.78669 540 ft 72 kts 53°
2026-04-27 08:11 -16.90723 145.79102 630 ft 77 kts 53°
2026-04-27 08:11 -16.90394 145.79544 828 ft 76 kts 52°
2026-04-27 08:12 -16.90052 145.79994 912 ft 82 kts 51°
2026-04-27 08:12 -16.89691 145.80459 935 ft 89 kts 51°
2026-04-27 08:12 -16.89253 145.81026 957 ft 112 kts 51°
2026-04-27 08:12 -16.88735 145.81689 985 ft 122 kts 50°
2026-04-27 08:13 -16.88196 145.82358 987 ft 119 kts 50°
2026-04-27 08:13 -16.87646 145.83041 995 ft 125 kts 50°
2026-04-27 08:13 -16.87098 145.83714 992 ft 123 kts 50°
2026-04-27 08:13 -16.86544 145.84395 995 ft 123 kts 50°
2026-04-27 08:14 -16.85991 145.85073 996 ft 123 kts 50°
2026-04-27 08:14 -16.85438 145.85751 996 ft 122 kts 50°
2026-04-27 08:14 -16.84886 145.86427 997 ft 122 kts 50°
2026-04-27 08:14 -16.84335 145.87102 997 ft 122 kts 50°
2026-04-27 08:15 -16.83781 145.87780 997 ft 122 kts 50°
2026-04-27 08:15 -16.83229 145.88455 997 ft 122 kts 49°
2026-04-27 08:15 -16.82679 145.89129 997 ft 122 kts 49°
2026-04-27 08:15 -16.82127 145.89805 997 ft 122 kts 49°
2026-04-27 08:16 -16.81574 145.90480 997 ft 122 kts 49°
2026-04-27 08:16 -16.81024 145.91154 997 ft 122 kts 49°
2026-04-27 08:16 -16.80478 145.91818 947 ft 114 kts 49°
2026-04-27 08:16 -16.79978 145.92419 783 ft 111 kts 49°
2026-04-27 08:17 -16.79473 145.93031 635 ft 111 kts 49°
2026-04-27 08:17 -16.78968 145.93648 563 ft 112 kts 50°
2026-04-27 08:17 -16.78506 145.94207 530 ft 100 kts 49°
2026-04-27 08:17 -16.78047 145.94771 521 ft 102 kts 50°
2026-04-27 08:18 -16.77589 145.95334 513 ft 102 kts 47°
2026-04-27 08:18 -16.77087 145.95854 510 ft 102 kts 44°
2026-04-27 08:18 -16.76568 145.96359 509 ft 102 kts 42°
2026-04-27 08:18 -16.76040 145.96847 508 ft 102 kts 41°
2026-04-27 08:19 -16.75585 145.97400 506 ft 103 kts 70°
2026-04-27 08:19 -16.75577 145.98134 507 ft 102 kts 84°
2026-04-27 08:19 -16.75172 145.98707 510 ft 102 kts 31°
2026-04-27 08:19 -16.74570 145.99087 507 ft 101 kts 30°
2026-04-27 08:20 -16.73956 145.99446 507 ft 101 kts 28°
2026-04-27 08:20 -16.73330 145.99785 507 ft 101 kts 26°
2026-04-27 08:20 -16.72693 146.00101 507 ft 101 kts 24°
2026-04-27 08:20 -16.72047 146.00393 507 ft 101 kts 22°
2026-04-27 08:21 -16.71363 146.00480 506 ft 103 kts 342°
2026-04-27 08:21 -16.70885 145.99962 508 ft 101 kts 298°
2026-04-27 08:21 -16.70570 145.99307 507 ft 101 kts 295°
2026-04-27 08:21 -16.70264 145.98645 507 ft 101 kts 296°
2026-04-27 08:22 -16.69905 145.98014 503 ft 102 kts 312°
2026-04-27 08:22 -16.69252 145.97873 507 ft 102 kts 19°
2026-04-27 08:22 -16.68703 145.98326 508 ft 101 kts 43°
2026-04-27 08:22 -16.68205 145.98843 507 ft 101 kts 46°
2026-04-27 08:23 -16.67719 145.99374 507 ft 101 kts 45°
2026-04-27 08:23 -16.67204 145.99876 507 ft 101 kts 41°
2026-04-27 08:23 -16.66662 146.00346 507 ft 101 kts 38°
2026-04-27 08:23 -16.66066 146.00737 507 ft 101 kts 27°
2026-04-27 08:24 -16.65416 146.01020 507 ft 101 kts 19°
2026-04-27 08:24 -16.64739 146.01227 507 ft 101 kts 16°
2026-04-27 08:24 -16.64058 146.01424 507 ft 101 kts 15°
2026-04-27 08:24 -16.63374 146.01607 507 ft 101 kts 13°
2026-04-27 08:25 -16.62685 146.01759 507 ft 101 kts 11°
2026-04-27 08:25 -16.61988 146.01894 507 ft 101 kts 10°
2026-04-27 08:25 -16.61291 146.02015 507 ft 101 kts
2026-04-27 08:25 -16.60597 146.02155 507 ft 101 kts 12°
2026-04-27 08:26 -16.59918 146.02321 507 ft 101 kts 14°
2026-04-27 08:26 -16.59230 146.02473 503 ft 103 kts 356°
2026-04-27 08:26 -16.58793 146.01962 507 ft 102 kts 272°
2026-04-27 08:26 -16.59228 146.01455 507 ft 102 kts 189°
2026-04-27 08:27 -16.59758 146.01844 507 ft 102 kts 105°
2026-04-27 08:27 -16.59444 146.02436 507 ft 102 kts 22°
2026-04-27 08:27 -16.58849 146.02176 507 ft 102 kts 298°
2026-04-27 08:27 -16.59034 146.01530 507 ft 102 kts 214°
2026-04-27 08:28 -16.59678 146.01249 507 ft 100 kts 205°
2026-04-27 08:28 -16.60297 146.00911 507 ft 101 kts 209°
2026-04-27 08:28 -16.60910 146.00559 507 ft 101 kts 209°
2026-04-27 08:28 -16.61524 146.00206 507 ft 101 kts 209°
2026-04-27 08:29 -16.62141 145.99852 507 ft 101 kts 208°
2026-04-27 08:29 -16.62759 145.99499 507 ft 101 kts 208°
2026-04-27 08:29 -16.63284 145.99020 508 ft 101 kts 237°
2026-04-27 08:29 -16.63646 145.98392 507 ft 101 kts 239°
2026-04-27 08:30 -16.64001 145.97767 507 ft 101 kts 239°
2026-04-27 08:30 -16.64361 145.97125 507 ft 101 kts 240°
2026-04-27 08:30 -16.64711 145.96497 507 ft 101 kts 240°
2026-04-27 08:30 -16.65063 145.95861 507 ft 101 kts 240°
2026-04-27 08:31 -16.65412 145.95221 507 ft 101 kts 240°
2026-04-27 08:31 -16.65760 145.94581 507 ft 101 kts 240°
2026-04-27 08:31 -16.66248 145.94059 508 ft 101 kts 216°
2026-04-27 08:31 -16.66839 145.93654 507 ft 101 kts 213°
2026-04-27 08:32 -16.67462 145.93314 507 ft 102 kts 200°
2026-04-27 08:32 -16.68150 145.93155 507 ft 101 kts 186°
2026-04-27 08:32 -16.68855 145.93122 507 ft 101 kts 179°
2026-04-27 08:32 -16.69611 145.93235 497 ft 119 kts 168°
2026-04-27 08:33 -16.70453 145.93425 509 ft 125 kts 167°
2026-04-27 08:33 -16.71289 145.93623 505 ft 123 kts 167°
2026-04-27 08:33 -16.72133 145.93818 586 ft 125 kts 168°
2026-04-27 08:33 -16.72987 145.94004 786 ft 125 kts 168°
2026-04-27 08:34 -16.73830 145.94186 987 ft 125 kts 168°
2026-04-27 08:34 -16.74683 145.94370 1184 ft 125 kts 168°
2026-04-27 08:34 -16.75548 145.94556 1362 ft 124 kts 168°
2026-04-27 08:34 -16.76391 145.94742 1443 ft 124 kts 168°
2026-04-27 08:35 -16.77220 145.94926 1474 ft 123 kts 168°
2026-04-27 08:35 -16.78061 145.95113 1493 ft 124 kts 168°
2026-04-27 08:35 -16.78904 145.95298 1500 ft 124 kts 168°
2026-04-27 08:35 -16.79745 145.95483 1503 ft 124 kts 168°
2026-04-27 08:36 -16.80590 145.95668 1505 ft 124 kts 168°
2026-04-27 08:36 -16.81148 145.95789 1506 ft 124 kts 168°
2026-04-27 08:36 -16.82279 145.96034 1506 ft 124 kts 168°
2026-04-27 08:36 -16.83124 145.96217 1507 ft 124 kts 168°
2026-04-27 08:37 -16.83682 145.96338 1507 ft 124 kts 168°
2026-04-27 08:37 -16.84528 145.96520 1507 ft 124 kts 168°
2026-04-27 08:37 -16.85658 145.96763 1507 ft 124 kts 168°
2026-04-27 08:37 -16.86493 145.96943 1507 ft 124 kts 168°
2026-04-27 08:38 -16.87348 145.97129 1507 ft 124 kts 167°
2026-04-27 08:38 -16.87889 145.97323 1507 ft 124 kts 157°
2026-04-27 08:38 -16.88642 145.97765 1507 ft 124 kts 148°
2026-04-27 08:38 -16.89580 145.98444 1507 ft 124 kts 143°
2026-04-27 08:39 -16.90037 145.98822 1507 ft 124 kts 141°
2026-04-27 08:39 -16.90924 145.99576 1507 ft 124 kts 141°
2026-04-27 08:39 -16.91376 145.99960 1507 ft 124 kts 141°
2026-04-27 08:39 -16.92057 146.00511 1506 ft 124 kts 147°
2026-04-27 08:40 -16.92888 146.00722 1507 ft 125 kts 183°
2026-04-27 08:40 -16.93665 146.00362 1510 ft 123 kts 220°
2026-04-27 08:40 -16.94201 145.99719 1505 ft 119 kts 235°
2026-04-27 08:40 -16.94477 145.98922 1514 ft 118 kts 268°
2026-04-27 08:41 -16.94183 145.98134 1505 ft 121 kts 309°
2026-04-27 08:41 -16.93432 145.97839 1508 ft 119 kts
2026-04-27 08:41 -16.92773 145.98346 1508 ft 119 kts 46°
2026-04-27 08:41 -16.92297 145.99050 1511 ft 117 kts 61°
2026-04-27 08:42 -16.92002 145.99864 1507 ft 122 kts 85°
2026-04-27 08:42 -16.92286 146.00634 1499 ft 122 kts 137°
2026-04-27 08:42 -16.93088 146.00689 1517 ft 118 kts 204°
2026-04-27 08:42 -16.93722 146.00204 1500 ft 117 kts 220°
2026-04-27 08:43 -16.94275 145.99541 1509 ft 123 kts 238°
2026-04-27 08:43 -16.94476 145.98699 1501 ft 125 kts 277°
2026-04-27 08:43 -16.93944 145.98036 1511 ft 121 kts 332°
2026-04-27 08:43 -16.93135 145.97785 1506 ft 123 kts 347°
2026-04-27 08:44 -16.92299 145.97604 1507 ft 123 kts 348°
2026-04-27 08:44 -16.91482 145.97401 1417 ft 114 kts 343°
2026-04-27 08:44 -16.90731 145.97102 1209 ft 118 kts 337°
2026-04-27 08:44 -16.89983 145.96731 1094 ft 120 kts 332°
2026-04-27 08:45 -16.89270 145.96271 1045 ft 121 kts 325°
2026-04-27 08:45 -16.88582 145.95758 1027 ft 122 kts 323°
2026-04-27 08:45 -16.87910 145.95219 1017 ft 122 kts 321°
2026-04-27 08:45 -16.87261 145.94647 1012 ft 122 kts 318°
2026-04-27 08:46 -16.86653 145.94023 1009 ft 123 kts 313°
2026-04-27 08:46 -16.86157 145.93314 909 ft 121 kts 299°
2026-04-27 08:46 -16.85875 145.92487 782 ft 121 kts 282°
2026-04-27 08:46 -16.85814 145.91614 627 ft 121 kts 271°
2026-04-27 08:47 -16.85818 145.90729 559 ft 122 kts 268°
2026-04-27 08:47 -16.85889 145.89843 532 ft 123 kts 264°
2026-04-27 08:47 -16.85790 145.88970 520 ft 124 kts 295°
2026-04-27 08:47 -16.85150 145.88427 513 ft 123 kts 341°
2026-04-27 08:48 -16.84325 145.88546 511 ft 123 kts 28°
2026-04-27 08:48 -16.83850 145.89256 509 ft 123 kts 76°
2026-04-27 08:48 -16.84045 145.90093 507 ft 124 kts 128°
2026-04-27 08:48 -16.84822 145.90365 508 ft 123 kts 188°
2026-04-27 08:49 -16.85444 145.89806 510 ft 122 kts 244°
2026-04-27 08:49 -16.85598 145.88947 497 ft 121 kts 268°
2026-04-27 08:49 -16.85697 145.88076 501 ft 117 kts 259°
2026-04-27 08:49 -16.85892 145.87265 483 ft 117 kts 254°
2026-04-27 08:50 -16.86136 145.86448 485 ft 118 kts 251°
2026-04-27 08:50 -16.86419 145.85637 480 ft 119 kts 249°
2026-04-27 08:50 -16.86757 145.84846 482 ft 120 kts 243°
2026-04-27 08:50 -16.87172 145.84083 483 ft 121 kts 240°
2026-04-27 08:51 -16.87573 145.83314 480 ft 121 kts 242°
2026-04-27 08:51 -16.87936 145.82634 518 ft 88 kts 240°
2026-04-27 08:51 -16.88251 145.82098 483 ft 87 kts 238°
2026-04-27 08:51 -16.88574 145.81574 483 ft 83 kts 237°
2026-04-27 08:52 -16.88919 145.81083 484 ft 85 kts 233°
2026-04-27 08:52 -16.89278 145.80591 483 ft 85 kts 232°
2026-04-27 08:52 -16.89592 145.80156 432 ft 65 kts 233°
2026-04-27 08:52 -16.89842 145.79835 449 ft 49 kts 229°
2026-04-27 08:53 -16.90061 145.79587 459 ft 45 kts 229°
2026-04-27 08:53 -16.90273 145.79333 458 ft 55 kts 229°
2026-04-27 08:53 -16.90552 145.79001 454 ft 66 kts 229°
2026-04-27 08:53 -16.90835 145.78634 464 ft 62 kts 230°
2026-04-27 08:54 -16.91137 145.78274 416 ft 67 kts 229°
2026-04-27 08:54 -16.91447 145.78010 212 ft 49 kts 196°
2026-04-27 08:54 -16.91703 145.77969 80 ft 29 kts 167°
2026-04-27 08:54 -16.91814 145.77976 26 ft 8 kts 134°
2026-04-27 08:55 -16.91840 145.77996 10 ft 0 kts 130°
2026-04-27 09:07 -16.91840 145.77992 46 ft 1 kts 54°
2026-04-27 09:07 -16.91632 145.77893 163 ft 63 kts 340°
2026-04-27 09:08 -16.91157 145.77671 329 ft 89 kts 332°
2026-04-27 09:08 -16.90578 145.77314 320 ft 101 kts 324°
2026-04-27 09:08 -16.90021 145.76875 380 ft 101 kts 322°
2026-04-27 09:08 -16.89491 145.76467 438 ft 89 kts 323°
2026-04-27 09:09 -16.89050 145.76113 404 ft 70 kts 320°
2026-04-27 09:09 -16.88732 145.75759 316 ft 63 kts 305°
2026-04-27 09:09 -16.88612 145.75386 187 ft 40 kts 272°
2026-04-27 09:09 -16.88653 145.75213 32 ft 10 kts 249°
2026-04-27 09:10 -16.88670 145.75180 15 ft 0 kts 250°